[[{"header":{"parameterUnit":"m.s-1","parameterCategory":1,"la1":30.2991,"la2":30.254,"lo1":-89.0895,"lo2":-89.0444,"dy":0.0017,"dx":0.0017,"nx":28,"ny":28,"refTime":"2023-10-13T03:00:00:Z","depth":0,"parameterNumber":2,"parameterNumberName":"U-component_of_WINDS"},"data":[0,0,0,0,0,0,0,0,0,0,0,0,0,0,0,0,0,0,0,0,0,0,0,0,0,0,0,0,0,0,0,0,0,0,0,0,0,0,0,0,0,0,0,0,0,0,0,0,0,0,0,0,0,0,0,0,0,0,0.3474,0.3475,0,0.3552,0.3552,0.3553,0.3603,0.3603,0.3604,0.3604,0.3685,0.3687,0.3688,0,0,0,0,0,0,0,0,0,0,0,0,0,0.337,0.3372,0.3474,0.3475,0.3476,0.3551,0.3552,0.3554,0.3603,0.3603,0.3604,0.3604,0.3684,0.3686,0.3689,0,0,0,0,0,0,0,0,0,0,0,0,0,0.3428,0.3373,0.3474,0.351,0.3514,0.3551,0.3552,0.3554,0.3603,0.3603,0.3604,0.3604,0.3683,0.3686,0.3689,0.3697,0,0,0.3698,0.3699,0,0,0,0,0,0,0,0,0.3425,0.3432,0.3504,0.3507,0.3512,0.3568,0.3546,0.3602,0.3603,0.3569,0.3604,0.3605,0.3646,0.3652,0.3665,0.3701,0.3704,0.3698,0.3699,0.3701,0.3701,0,0,0,0,0,0,0,0.3421,0.3429,0.3505,0.3505,0.351,0.3522,0.3531,0.3556,0.3604,0.3572,0.3576,0.3584,0.3648,0.3662,0.3667,0.3706,0.3698,0.37,0.3702,0.3703,0.3751,0.3751,0,0,0,0,0,0,0.3411,0.3425,0.3502,0.3507,0.3469,0.3524,0.3534,0.355,0.3604,0.3613,0.3584,0.3586,0.3657,0.3664,0.3671,0.3683,0.3701,0.3703,0.3705,0.3752,0.3751,0.3751,0,0,0,0,0,0,0.3409,0.3417,0.3499,0.3467,0.3479,0.3525,0.3543,0.3551,0.3565,0.3613,0.3622,0.359,0.3658,0.3667,0.369,0.3687,0.3705,0.3707,0.3752,0.3752,0.3751,0.3709,0,0,0,0,0,0,0.3405,0.3416,0.342,0.3467,0.348,0.3517,0.3543,0.3552,0.357,0.3574,0.362,0.3629,0.3659,0.3685,0.3693,0.3691,0.3709,0.3753,0.3752,0.3751,0.3711,0.3707,0.3703,0,0,0,0,0,0.3402,0.3405,0.3419,0.3428,0.3485,0.3517,0.3524,0.3559,0.3569,0.3573,0.3604,0.3627,0.3686,0.3687,0.3696,0.3695,0.3753,0.3752,0.3751,0.3712,0.3708,0.3704,0,0,0,0,0,0,0.3357,0.3412,0.3429,0.3447,0.3477,0.3525,0.3531,0.3553,0.358,0.3583,0.3625,0.3635,0.3654,0.3677,0.3678,0.3706,0.3722,0.3723,0.369,0.3686,0.3682,0.3676,0.3712,0,0,0,0,0,0.3349,0.3369,0.3417,0.3429,0.3442,0.3484,0.3499,0.3523,0.3555,0.3568,0.36,0.3631,0.3657,0.3672,0.3699,0.3714,0.3725,0.3718,0.3714,0.3711,0.3711,0.3721,0.3718,0.3748,0.3748,0.3748,0,0,0.3333,0.3366,0.3376,0.342,0.3446,0.3466,0.3494,0.3515,0.353,0.3571,0.3595,0.362,0.3657,0.3676,0.3686,0.3696,0.3705,0.371,0.3707,0.3709,0.3719,0.3717,0.3714,0.3747,0.3748,0.3748,0,0,0.3315,0.3341,0.3354,0.3379,0.3417,0.3445,0.3448,0.3492,0.351,0.3534,0.3566,0.3585,0.3628,0.3653,0.3671,0.3662,0.3684,0.3669,0.365,0.3659,0.3657,0.3655,0.3651,0.3649,0.3669,0.3669,0.3669,0,0.329,0.3322,0.3358,0.3376,0.3395,0.3432,0.3446,0.3468,0.3513,0.3525,0.3535,0.359,0.3617,0.3643,0.364,0.3654,0.3659,0.3664,0.3654,0.3653,0.3651,0.3648,0.3646,0.3667,0.3667,0.3667,0.3668,0,0.329,0.3311,0.3317,0.3358,0.3378,0.3393,0.3432,0.3447,0.3469,0.3496,0.352,0.3555,0.3588,0.3596,0.3618,0.3624,0.3629,0.3646,0.3664,0.3646,0.3643,0.3642,0.3664,0.3665,0.3665,0.3666,0,0,0.3245,0.3306,0.3307,0.3326,0.3371,0.3389,0.3406,0.3438,0.345,0.348,0.3495,0.3531,0.3546,0.3567,0.3593,0.36,0.359,0.3617,0.3618,0.361,0.3598,0.3584,0.3582,0.3605,0.3605,0.3605,0.3595,0,0.3233,0.3265,0.3298,0.3319,0.3339,0.3375,0.339,0.3419,0.3445,0.3466,0.3494,0.3518,0.3537,0.355,0.3559,0.3589,0.3588,0.359,0.362,0.362,0.3609,0.3581,0.3567,0.3556,0.3594,0.3594,0.3594,0,0.3223,0.325,0.3272,0.3315,0.3325,0.3337,0.3369,0.3389,0.3423,0.344,0.3463,0.349,0.351,0.3525,0.3554,0.3555,0.3569,0.3585,0.3586,0.3589,0.3606,0.3584,0.3553,0.3551,0.3593,0.3593,0.3593,0,0.3187,0.3229,0.3248,0.3264,0.3314,0.3322,0.3343,0.3377,0.3394,0.3422,0.3434,0.3464,0.348,0.3503,0.3537,0.3545,0.3562,0.358,0.3577,0.3576,0.3578,0.3578,0.3549,0.3588,0.3588,0.3588,0.3588,0,0.3169,0.3182,0.3233,0.3244,0.3259,0.3297,0.3311,0.3336,0.3366,0.3383,0.3416,0.3431,0.3476,0.3496,0.3523,0.3542,0.355,0.3565,0.3571,0.3561,0.3559,0.3571,0.3572,0.3588,0.3588,0.3588,0.3588,0,0.3132,0.3167,0.3189,0.3235,0.3246,0.3255,0.3294,0.3307,0.3334,0.3355,0.3362,0.3404,0.343,0.3467,0.3504,0.3522,0.3537,0.3549,0.3525,0.3529,0.3524,0.3523,0.3501,0.35,0.354,0.3539,0.3539,0,0.3118,0.3128,0.3174,0.3188,0.3208,0.323,0.3247,0.3285,0.3302,0.334,0.3348,0.3377,0.3401,0.3441,0.3475,0.3504,0.3516,0.3506,0.3521,0.351,0.3515,0.3514,0.3515,0.3503,0.3502,0.3501,0.3501,0,0.309,0.3106,0.313,0.3159,0.3179,0.3204,0.323,0.324,0.3283,0.33,0.3327,0.3346,0.3384,0.3411,0.3444,0.3467,0.3491,0.3496,0.3497,0.3486,0.3472,0.3479,0.3515,0.3497,0.3497,0.3497,0.3498,0.3498,0.3063,0.3074,0.3108,0.3133,0.3157,0.3181,0.3195,0.3223,0.3246,0.3279,0.33,0.3325,0.3359,0.3406,0.3427,0.3447,0.3457,0.3458,0.3458,0.3458,0.3454,0.3469,0.3454,0.3454,0.3454,0.3454,0.3454,0,0.3036,0.306,0.3082,0.3118,0.3138,0.3159,0.3189,0.3204,0.3226,0.3255,0.3278,0.3308,0.3335,0.3371,0.3401,0.341,0.3422,0.3417,0.3416,0.3421,0.3444,0.344,0.3407,0.3407,0.3407,0.3407,0.3407,0.3407,0.3024,0.3043,0.3064,0.3094,0.3118,0.3143,0.3158,0.3181,0.3204,0.3236,0.3258,0.3281,0.3313,0.3345,0.3371,0.3381,0.339,0.3381,0.3394,0.3415,0.3419,0.3423,0.342,0.3382,0.3382,0.3369,0.3369,0.3369]},{"header":{"parameterUnit":"m.s-1","parameterCategory":1,"la1":30.2991,"la2":30.254,"lo1":-89.0895,"lo2":-89.0444,"dy":0.0017,"dx":0.0017,"nx":28,"ny":28,"refTime":"2023-10-13T03:00:00:Z","depth":0,"parameterNumber":3,"parameterNumberName":"V-component_of_WINDS"},"data":[0,0,0,0,0,0,0,0,0,0,0,0,0,0,0,0,0,0,0,0,0,0,0,0,0,0,0,0,0,0,0,0,0,0,0,0,0,0,0,0,0,0,0,0,0,0,0,0,0,0,0,0,0,0,0,0,0,0,1.3322,1.3322,0,1.3307,1.3307,1.3307,1.3313,1.3314,1.3314,1.3314,1.3297,1.3296,1.3295,0,0,0,0,0,0,0,0,0,0,0,0,0,1.3355,1.3354,1.3322,1.3322,1.3322,1.3307,1.3307,1.3307,1.3313,1.3314,1.3314,1.3314,1.3297,1.3296,1.3295,0,0,0,0,0,0,0,0,0,0,0,0,0,1.334,1.3354,1.3322,1.3324,1.3323,1.3307,1.3307,1.3307,1.3313,1.3314,1.3314,1.3315,1.3297,1.3296,1.3295,1.3276,0,0,1.3291,1.3291,0,0,0,0,0,0,0,0,1.3341,1.3339,1.3324,1.3323,1.3323,1.3313,1.3312,1.3296,1.3313,1.3317,1.3314,1.3315,1.3302,1.33,1.3296,1.3275,1.3275,1.3291,1.329,1.329,1.329,0,0,0,0,0,0,0,1.3342,1.334,1.3316,1.3323,1.3323,1.3324,1.3322,1.3309,1.3306,1.3317,1.3317,1.3315,1.3302,1.3297,1.3295,1.3274,1.3291,1.329,1.3289,1.3289,1.3235,1.3235,0,0,0,0,0,0,1.3343,1.334,1.3317,1.3316,1.3334,1.3323,1.3321,1.3316,1.3306,1.3306,1.3315,1.3316,1.3299,1.3297,1.3295,1.327,1.329,1.3289,1.3288,1.3236,1.3235,1.3234,0,0,0,0,0,0,1.3344,1.3341,1.3317,1.3328,1.3325,1.3322,1.3315,1.3315,1.331,1.3305,1.3304,1.3311,1.3299,1.3297,1.328,1.327,1.3288,1.3287,1.3237,1.3236,1.3235,1.3223,0,0,0,0,0,0,1.3345,1.3341,1.3335,1.3328,1.3325,1.3304,1.3315,1.3314,1.3308,1.3309,1.3301,1.33,1.3299,1.3282,1.3279,1.3269,1.3286,1.3238,1.3236,1.3235,1.3224,1.3221,1.3219,0,0,0,0,0,1.3346,1.3332,1.3335,1.3332,1.3317,1.3304,1.3301,1.3301,1.3308,1.33,1.3297,1.3301,1.3272,1.3281,1.3277,1.3266,1.3238,1.3237,1.3235,1.3225,1.3222,1.3219,0,0,0,0,0,0,1.3338,1.3331,1.3334,1.3318,1.3311,1.3305,1.3296,1.3298,1.3289,1.329,1.329,1.3288,1.3271,1.3267,1.3277,1.3246,1.3256,1.3254,1.3249,1.3246,1.3244,1.3244,1.3285,0,0,0,0,0,1.3334,1.3325,1.3319,1.3305,1.3302,1.3299,1.3294,1.3294,1.3287,1.3284,1.3279,1.3272,1.3261,1.3253,1.3243,1.3224,1.3221,1.3214,1.3212,1.321,1.3207,1.3194,1.3191,1.3229,1.3229,1.3229,0,0,1.3326,1.3322,1.3316,1.3304,1.3299,1.3287,1.3297,1.3286,1.3277,1.3282,1.3266,1.3262,1.3253,1.3235,1.3226,1.3231,1.3196,1.3208,1.3206,1.3205,1.3192,1.3188,1.3185,1.3228,1.3228,1.3229,0,0,1.3306,1.3303,1.329,1.3284,1.3276,1.3274,1.3271,1.3264,1.3262,1.3246,1.3249,1.3238,1.322,1.3213,1.3207,1.3183,1.3185,1.3179,1.3166,1.3153,1.315,1.3147,1.3136,1.3133,1.3177,1.3177,1.3177,0,1.3297,1.3281,1.3282,1.327,1.3264,1.3268,1.3254,1.3249,1.3238,1.3233,1.3238,1.3214,1.3209,1.3188,1.3181,1.3177,1.3172,1.318,1.3151,1.3148,1.3145,1.3135,1.3131,1.3176,1.3176,1.3177,1.3177,0,1.327,1.3259,1.3249,1.3238,1.3231,1.3218,1.3216,1.3208,1.3209,1.3206,1.3188,1.3182,1.317,1.3165,1.3166,1.3143,1.3146,1.3151,1.316,1.3141,1.3131,1.3127,1.3175,1.3176,1.3176,1.3176,0,0,1.3244,1.3233,1.3229,1.3223,1.3215,1.3205,1.3192,1.318,1.3172,1.3165,1.3152,1.3135,1.314,1.3133,1.3133,1.3122,1.31,1.3128,1.3128,1.3121,1.3071,1.3066,1.3062,1.3102,1.3101,1.3101,1.3071,0,1.3222,1.3198,1.3198,1.3176,1.3164,1.3168,1.3156,1.3148,1.3145,1.3133,1.313,1.3117,1.3125,1.3121,1.311,1.3105,1.309,1.3107,1.3088,1.3087,1.3088,1.3057,1.3051,1.3024,1.3068,1.3067,1.3067,0,1.3193,1.3183,1.316,1.3151,1.3146,1.3135,1.3123,1.3113,1.3104,1.3102,1.3093,1.3095,1.3079,1.309,1.3067,1.3079,1.3071,1.3067,1.3066,1.3062,1.3075,1.305,1.3016,1.3011,1.3061,1.3061,1.3062,0,1.3173,1.3155,1.3138,1.3133,1.3123,1.3115,1.311,1.3101,1.3093,1.3083,1.3077,1.3065,1.3057,1.3047,1.3044,1.3053,1.302,1.3032,1.3016,1.3016,1.3008,1.3008,1.2969,1.3007,1.3007,1.3007,1.3007,0,1.3147,1.3132,1.3129,1.3119,1.3101,1.3101,1.3083,1.3079,1.3071,1.3058,1.3061,1.3049,1.3046,1.3033,1.3031,1.3011,1.3008,1.3005,1.3004,1.3003,1.3003,1.2997,1.2998,1.3006,1.3006,1.3006,1.3006,0,1.3123,1.312,1.3102,1.3093,1.309,1.3078,1.307,1.3059,1.3055,1.3039,1.3035,1.303,1.3014,1.301,1.2992,1.299,1.2966,1.2968,1.2969,1.2968,1.2952,1.2953,1.2906,1.2899,1.2943,1.2942,1.2942,0,1.3106,1.3094,1.3084,1.3076,1.307,1.3058,1.3049,1.3048,1.3039,1.3026,1.3016,1.3001,1.2989,1.2964,1.2957,1.2942,1.2943,1.2927,1.294,1.2939,1.2939,1.2939,1.2937,1.2924,1.2924,1.2923,1.2923,0,1.3074,1.3073,1.3062,1.3049,1.3039,1.3029,1.3019,1.3012,1.3009,1.2999,1.2983,1.2974,1.2954,1.2938,1.2923,1.2917,1.2918,1.2919,1.2914,1.2913,1.2913,1.291,1.296,1.292,1.292,1.292,1.2921,1.2921,1.3051,1.304,1.3031,1.3017,1.301,1.3,1.2989,1.2984,1.2971,1.2955,1.2955,1.2937,1.2926,1.2906,1.2898,1.2883,1.2888,1.2882,1.288,1.2877,1.2875,1.2917,1.2881,1.2881,1.2881,1.2881,1.2881,0,1.3019,1.3012,1.3,1.2986,1.2975,1.2978,1.2967,1.2957,1.2941,1.2931,1.2919,1.2899,1.2883,1.2875,1.2859,1.2848,1.2848,1.2844,1.2843,1.2841,1.2873,1.2878,1.2844,1.2844,1.2844,1.2844,1.2844,1.2844,1.3,1.2981,1.2978,1.2954,1.2948,1.2931,1.2924,1.2914,1.2906,1.2884,1.2871,1.2866,1.2856,1.2839,1.2823,1.2821,1.2814,1.2808,1.2806,1.2836,1.2839,1.2843,1.2847,1.2807,1.2807,1.2775,1.2775,1.2775]}]]